Total_Precipitation_Accumulation
1.77 1.76 1.38 0.87 0.69 0.62 0.64 0.61 0.53 0.54 0.51 0.60 0.59 0.56 0.53 0.53 0.61 0.66 0.65 0.71 0.85 1.03 1.25 1.42 1.76 2.02 2.26 2.57 2.91 3.18 3.32 3.46 3.63 3.81 3.94 3.90 3.86 3.71 3.47 3.25 3.11 3.02 2.72 2.69
1.72 1.33 0.76 0.55 0.62 0.68 0.73 0.75 0.56 0.53 0.55 0.68 0.70 0.64 0.57 0.61 0.69 0.67 0.66 0.69 0.75 0.90 1.13 1.34 1.60 1.84 2.08 2.35 2.56 3.00 3.25 3.29 3.30 3.32 3.55 3.79 4.02 4.05 3.94 3.71 3.44 3.30 3.08 2.87
1.33 0.87 0.64 0.69 0.79 0.86 0.78 0.70 0.59 0.63 0.66 0.75 0.80 0.82 0.70 0.71 0.64 0.65 0.69 0.74 0.77 0.81 0.98 1.18 1.48 1.70 1.91 2.17 2.35 2.60 2.93 3.14 3.22 3.30 3.63 3.90 4.11 4.05 3.91 3.74 3.52 3.33 3.24 3.03
1.15 0.72 0.76 0.86 0.85 0.84 0.81 0.50 0.55 0.70 0.93 1.05 0.92 1.11 0.88 0.76 0.62 0.62 0.69 0.73 0.79 0.83 0.95 1.09 1.26 1.54 1.78 1.94 2.16 2.38 2.66 2.96 3.20 3.35 3.48 3.54 3.57 3.57 3.46 3.45 3.52 3.42 3.21 3.11
1.21 0.81 0.87 0.97 0.75 0.75 0.72 0.47 0.56 0.78 1.03 1.11 0.80 0.93 0.85 0.61 0.62 0.63 0.66 0.68 0.72 0.80 0.89 0.95 1.07 1.31 1.55 1.76 1.99 2.25 2.46 2.69 3.01 3.28 3.27 3.35 3.30 3.23 3.34 3.34 3.35 3.40 3.27 3.12
0.91 0.79 0.97 0.93 0.65 0.71 0.75 0.81 0.92 1.05 1.50 1.59 0.72 0.75 0.84 0.73 0.76 0.70 0.65 0.66 0.68 0.75 0.84 0.90 0.97 1.16 1.39 1.62 1.77 2.06 2.35 2.48 2.71 3.08 3.10 3.01 2.90 2.82 3.02 3.17 3.18 3.28 3.21 3.01
1.31 1.07 0.93 0.89 0.94 0.98 1.09 1.58 2.10 2.13 2.09 1.30 0.49 0.57 0.81 0.69 0.69 0.77 0.70 0.64 0.62 0.66 0.75 0.79 0.82 0.98 1.26 1.49 1.66 1.84 2.14 2.31 2.44 2.73 2.92 2.92 2.80 2.69 2.68 2.82 3.00 3.14 3.15 2.82
1.43 1.32 0.94 0.97 1.12 1.26 1.16 1.41 1.70 1.53 1.06 0.64 0.46 0.61 0.72 0.56 0.54 0.57 0.58 0.55 0.55 0.60 0.67 0.74 0.78 0.88 1.09 1.33 1.54 1.67 1.85 2.08 2.22 2.39 2.60 2.81 2.74 2.65 2.54 2.50 2.70 2.89 3.00 2.82
1.13 1.08 0.68 0.71 0.75 0.88 1.13 1.18 1.03 1.37 0.95 0.69 0.64 0.65 0.56 0.39 0.40 0.45 0.48 0.47 0.51 0.59 0.63 0.73 0.77 0.85 0.96 1.14 1.37 1.53 1.63 1.84 1.99 2.14 2.36 2.57 2.55 2.42 2.32 2.25 2.33 2.50 2.66 2.66
1.08 1.15 0.70 0.68 0.90 0.93 0.98 1.00 1.24 1.88 1.57 0.96 0.63 0.56 0.63 0.50 0.48 0.47 0.49 0.52 0.56 0.58 0.58 0.64 0.75 0.83 0.92 1.06 1.20 1.39 1.55 1.72 1.85 1.95 2.13 2.27 2.32 2.25 2.14 2.07 2.07 2.14 2.22 2.28
0.95 1.28 0.95 0.90 1.14 0.97 0.96 1.15 1.39 1.51 1.31 1.18 0.79 0.69 0.65 0.57 0.54 0.53 0.54 0.57 0.59 0.59 0.61 0.63 0.70 0.81 0.92 1.05 1.17 1.31 1.45 1.59 1.75 1.85 1.89 1.95 2.03 2.09 2.01 1.98 1.89 1.86 1.94 2.04
0.86 1.34 1.08 0.75 0.67 0.58 0.77 0.94 1.19 1.65 1.27 0.95 0.86 0.73 0.49 0.46 0.50 0.52 0.53 0.57 0.56 0.54 0.57 0.62 0.67 0.78 0.88 0.99 1.13 1.28 1.36 1.52 1.64 1.70 1.76 1.77 1.83 1.91 1.90 1.75 1.70 1.67 1.65 1.77
1.16 1.68 1.50 1.05 0.96 0.88 0.92 0.79 0.90 1.33 1.61 1.22 1.02 0.74 0.43 0.35 0.40 0.45 0.50 0.55 0.53 0.51 0.51 0.54 0.61 0.71 0.84 0.94 1.04 1.16 1.23 1.37 1.55 1.59 1.66 1.69 1.73 1.83 1.89 1.75 1.61 1.57 1.53 1.53
1.52 1.73 1.39 1.20 1.00 0.98 0.95 0.71 0.80 1.54 1.96 1.13 0.70 0.58 0.46 0.42 0.45 0.49 0.53 0.57 0.55 0.52 0.51 0.53 0.60 0.67 0.76 0.86 0.96 1.03 1.09 1.19 1.33 1.44 1.55 1.62 1.63 1.70 1.82 1.81 1.61 1.54 1.51 1.47
1.33 1.54 0.94 0.66 0.55 0.69 0.76 0.68 0.76 1.17 1.16 1.08 0.66 0.55 0.61 0.60 0.62 0.61 0.58 0.54 0.51 0.49 0.49 0.52 0.60 0.68 0.68 0.73 0.83 0.90 0.93 1.01 1.13 1.21 1.33 1.51 1.57 1.61 1.73 1.80 1.76 1.67 1.61 1.53
1.00 1.31 0.95 0.70 0.47 0.56 0.64 0.61 0.66 0.76 0.74 0.76 0.63 0.66 0.59 0.57 0.53 0.55 0.56 0.53 0.54 0.51 0.50 0.48 0.55 0.64 0.65 0.69 0.77 0.85 0.89 0.92 1.00 1.09 1.17 1.29 1.36 1.47 1.62 1.73 1.71 1.70 1.70 1.67
0.83 1.09 1.32 0.96 0.54 0.73 0.93 0.79 0.76 0.74 0.66 0.65 0.76 0.70 0.52 0.51 0.53 0.59 0.57 0.52 0.54 0.52 0.47 0.46 0.50 0.59 0.65 0.66 0.69 0.77 0.85 0.88 0.96 1.05 1.10 1.16 1.21 1.25 1.39 1.54 1.70 1.76 1.76 1.74
0.70 0.97 1.48 1.14 0.84 1.13 0.91 0.63 0.61 0.64 0.64 0.62 0.63 0.54 0.51 0.55 0.57 0.59 0.58 0.54 0.48 0.46 0.42 0.40 0.45 0.50 0.60 0.64 0.61 0.64 0.68 0.76 0.85 0.93 0.95 1.02 1.14 1.21 1.27 1.44 1.65 1.81 1.90 1.91
0.43 0.95 1.58 1.36 0.99 0.67 0.44 0.37 0.51 0.63 0.67 0.58 0.51 0.43 0.40 0.42 0.45 0.52 0.53 0.52 0.48 0.46 0.44 0.41 0.43 0.46 0.51 0.58 0.60 0.60 0.62 0.69 0.77 0.86 0.89 0.92 1.05 1.23 1.37 1.52 1.68 1.81 1.96 2.03
0.43 0.84 1.58 1.44 1.22 0.73 0.45 0.24 0.28 0.51 0.76 0.47 0.42 0.45 0.42 0.41 0.54 0.54 0.48 0.46 0.43 0.39 0.40 0.41 0.41 0.40 0.44 0.51 0.55 0.59 0.63 0.71 0.81 0.92 1.01 1.05 1.14 1.34 1.48 1.60 1.68 1.70 1.77 1.84
0.64 1.02 1.33 1.17 1.16 0.67 0.39 0.21 0.22 0.70 0.87 0.43 0.38 0.45 0.48 0.59 0.68 0.56 0.45 0.44 0.41 0.38 0.39 0.41 0.44 0.49 0.53 0.57 0.63 0.71 0.74 0.87 0.99 1.04 1.12 1.21 1.24 1.29 1.34 1.39 1.40 1.34 1.32 1.35
0.58 0.80 0.84 0.89 1.19 0.85 0.39 0.32 0.62 0.84 0.53 0.44 0.40 0.41 0.46 0.50 0.48 0.45 0.42 0.40 0.40 0.38 0.38 0.42 0.50 0.61 0.66 0.72 0.84 0.90 0.92 0.97 1.03 1.10 1.13 1.16 1.19 1.22 1.21 1.19 1.15 1.06 1.03 1.05
0.55 0.74 0.84 0.87 0.93 0.77 0.56 0.62 0.67 0.58 0.54 0.48 0.48 0.45 0.46 0.47 0.47 0.44 0.43 0.40 0.37 0.37 0.38 0.43 0.49 0.53 0.59 0.66 0.77 0.86 0.85 0.85 0.91 0.98 1.02 1.04 1.03 1.04 1.06 1.04 1.02 1.01 0.96 0.96
0.51 0.44 0.60 0.68 0.63 0.54 0.49 0.44 0.43 0.45 0.52 0.50 0.49 0.47 0.44 0.47 0.44 0.42 0.39 0.39 0.39 0.40 0.40 0.41 0.43 0.45 0.47 0.50 0.58 0.67 0.66 0.68 0.73 0.80 0.85 0.89 0.92 0.93 0.94 0.94 0.94 0.98 1.00 0.97
0.52 0.50 0.60 0.64 0.51 0.42 0.39 0.38 0.41 0.38 0.35 0.35 0.36 0.38 0.42 0.43 0.43 0.42 0.41 0.40 0.41 0.43 0.43 0.45 0.47 0.50 0.52 0.51 0.53 0.57 0.60 0.65 0.69 0.71 0.74 0.76 0.80 0.86 0.90 0.92 0.95 0.99 1.02 1.09
0.52 0.63 0.77 0.73 0.51 0.56 0.50 0.38 0.36 0.35 0.33 0.30 0.30 0.31 0.32 0.35 0.40 0.41 0.43 0.43 0.43 0.44 0.42 0.41 0.43 0.47 0.51 0.53 0.54 0.55 0.58 0.64 0.71 0.74 0.73 0.74 0.79 0.83 0.85 0.88 0.94 1.02 1.03 1.10